Home > Weather > Adak > Past weeks

Flag for USA Past Weather in Adak, Alaska, USA — Yesterday and Last 2 Weeks

Now
50 °F

Low clouds.


Feels Like: 48 °F
Forecast: 50 / 55 °F
Wind: 5 mph from East

Location: Adak

Current Time: Jul 28, 2016 at 9:07:58 PM

Latest Report: Jul 28, 2016 at 8:36 PM


Visibility: 3 mi

Pressure: 30.05 "Hg

Humidity: 76%

Dew Point: 43 °F

Location of AdakLocation

Past Weather in Adak — Graph

°F

Adak Temperature Yesterday

Maximum temperature yesterday: 63 °F (at 1:16 PM)
Minimum temperature yesterday: 48 °F (at 12:16 AM)
Average temperature yesterday: 53 °F

High & Low Weather Summary for the Past Weeks

 TemperatureHumidityPressure
High63 °F (Jul 27, 1:16 PM)82% (Jul 15, 7:56 AM)30.43 "Hg (Jul 15, 7:56 AM)
Low45 °F (Jul 22, 4:36 AM)51% (Jul 27, 3:56 PM)29.90 "Hg (Jul 19, 11:16 AM)
Average52 °F73%30.15 "Hg
* Reported Jul 13 7:16 PM — Jul 28 7:56 PM, Adak, Weather by CustomWeather, © 2016

Note: Actual official high and low records may vary slightly from our data, if they occured in-between our weather recording intervals... More about our weather records

Advertising

Adak Weather History for the Previous 24 Hours

Scroll right to see more
 ConditionsComfort  
Time TempWeatherWind HumidityBarometerVisibility
7:56 PM
Thu, Jul 28
50 °FLow clouds.5 mph76%30.05 "Hg4 mi
7:36 PM52 °FLow clouds.3 mph72%30.04 "Hg4 mi
7:16 PM52 °FLow clouds.No wind72%30.04 "Hg5 mi
6:56 PM52 °FLow clouds.3 mph72%30.04 "Hg7 mi
6:36 PM52 °FLow clouds.5 mph72%30.04 "Hg5 mi
6:16 PM52 °FLow clouds.6 mph72%30.04 "Hg5 mi
5:56 PM52 °FLow clouds.5 mph72%30.04 "Hg9 mi
5:36 PM52 °FLow clouds.5 mph72%30.04 "Hg10 mi
5:16 PM52 °FLow clouds.5 mph72%30.04 "Hg10 mi
4:56 PM52 °FLow clouds.5 mph72%30.04 "Hg8 mi
4:36 PM52 °FLow clouds.No wind72%30.04 "Hg6 mi
4:16 PM52 °FLow clouds.3 mph72%30.04 "Hg5 mi
3:56 PM52 °FLow clouds.3 mph72%30.03 "Hg5 mi
3:36 PM50 °FLow clouds.5 mph76%30.03 "Hg5 mi
3:16 PM50 °FLow clouds.6 mph76%30.03 "Hg5 mi
2:56 PM50 °FLow clouds.5 mph76%30.03 "Hg3 mi
2:36 PM52 °FLow clouds.6 mph72%30.04 "Hg5 mi
2:16 PM50 °FLow clouds.5 mph76%30.03 "Hg8 mi
1:56 PM50 °FLow clouds.6 mph76%30.03 "Hg9 mi
1:36 PM52 °FLow clouds.6 mph72%30.02 "Hg9 mi
1:16 PM52 °FLow clouds.6 mph72%30.02 "Hg10 mi
12:56 PM52 °FLow clouds.6 mph72%30.02 "Hg10 mi
12:36 PM52 °FLow clouds.6 mph72%30.02 "Hg10 mi
12:16 PM52 °FLow clouds.5 mph72%30.02 "Hg10 mi
11:56 AM52 °FLow clouds.5 mph72%30.02 "Hg10 mi
11:36 AM52 °FLow clouds.No wind72%30.02 "Hg10 mi
11:16 AM50 °FLow clouds.3 mph76%30.01 "Hg10 mi
10:56 AM50 °FLow clouds.3 mph76%30.01 "Hg10 mi
10:36 AM50 °FLow clouds.No wind76%30.01 "Hg3 mi
10:16 AM50 °FLow clouds.5 mph76%30.00 "Hg2 mi
9:56 AM50 °FLow clouds.5 mph76%30.00 "Hg4 mi
9:36 AM50 °FLow clouds.6 mph76%30.00 "Hg3 mi
9:16 AM50 °FLow clouds.3 mph76%29.99 "Hg4 mi
8:56 AM50 °FLow clouds.6 mph76%29.98 "Hg4 mi
8:36 AM50 °FLow clouds.5 mph76%29.97 "Hg8 mi
8:16 AM50 °FLow clouds.No wind76%29.97 "Hg5 mi
7:56 AM50 °FLow clouds.3 mph76%29.97 "Hg4 mi
7:36 AM50 °FLow clouds.No wind76%29.97 "Hg3 mi
7:16 AM48 °FLow clouds.No wind82%29.96 "Hg2 mi
6:56 AM48 °FLow clouds.No wind82%29.96 "Hg5 mi
6:36 AM48 °FLow clouds.6 mph82%29.96 "Hg3 mi
6:16 AM48 °FLow clouds.7 mph82%29.95 "Hg5 mi
5:56 AM48 °FLow clouds.No wind82%29.95 "Hg10 mi
5:36 AM48 °FLow clouds.No wind82%29.95 "Hg10 mi
5:16 AM48 °FLow clouds.7 mph82%29.95 "Hg9 mi
4:56 AM48 °FLow clouds.5 mph82%29.95 "Hg2 mi
4:36 AM50 °FLow clouds.6 mph76%29.95 "Hg3 mi
4:16 AM50 °FLow clouds.3 mph76%29.95 "Hg3 mi
3:56 AM50 °FLow clouds.7 mph76%29.94 "Hg5 mi
3:36 AM50 °FMostly cloudy.5 mph76%29.95 "Hg10 mi
2:56 AM50 °FLow clouds.5 mph76%29.95 "Hg4 mi
2:36 AM50 °FLow clouds.7 mph76%29.95 "Hg3 mi
2:16 AM50 °FLow clouds.7 mph76%29.95 "Hg5 mi
1:56 AM50 °FLow clouds.9 mph76%29.94 "Hg10 mi
1:36 AM52 °FLow clouds.10 mph72%29.94 "Hg10 mi
1:16 AM50 °FMostly cloudy.9 mph76%29.94 "Hg10 mi
12:56 AM50 °FLow clouds.8 mph76%29.95 "Hg10 mi
12:36 AM50 °FLow clouds.No wind76%29.95 "Hg10 mi
12:16 AM50 °FLow clouds.5 mph76%29.95 "Hg10 mi
11:56 PM
Wed, Jul 27
52 °FLow clouds.7 mph72%29.95 "Hg10 mi
11:36 PM52 °FLow clouds.5 mph72%29.95 "Hg10 mi
11:16 PM50 °FLow clouds.No wind76%29.95 "Hg10 mi
10:56 PM50 °FMostly cloudy.3 mph76%29.94 "Hg10 mi
10:36 PM50 °FMostly cloudy.3 mph76%29.94 "Hg10 mi
10:16 PM52 °FLow clouds.No wind72%29.94 "Hg9 mi
9:56 PM52 °FLow clouds.5 mph72%29.93 "Hg10 mi
9:36 PM52 °FLow clouds.No wind72%29.93 "Hg10 mi
9:16 PM52 °FLow clouds.5 mph72%29.92 "Hg10 mi
Weather by CustomWeather, © 2016

See weather overviewHow to use our weather pages